Zurück zum Katalog

BLOCK DM-SL R/B

AktivHEO
NORAD 33377·ROCKET BODY· XX

Gestartet Sep 24, 2008 von Sea Launch Platform

Loading…

Nächste Überflüge (nächste 24 Stunden)

TLE

AktuellSource: Space-Track

Epoche: Sep 14, 2026, 07:50 UTC

1 33377U 08045B   26257.32687497 -.00000157  00000-0  00000-0 0  9992
2 33377   0.9349  64.3396 6418468  77.0624 289.1079  2.12855347139808

Verfolge BLOCK DM-SL R/B in Echtzeit mit AllMySat

Download on the App Store